Location: Unspecified
(0.0000°N, 0.0000°E)
Time: 03:13:58
(UTC+00:00)

Hubble Space Telescope - Pass Details

Date: 29 May 2017
Orbit: 537 x 541 km, 28.5° (Epoch: 17 December)

Event Time Altitude Azimuth Distance (km) Brightness Sun altitude
Exits shadow 04:26:04 63° 290° (WNW) 601 0.7 -21.1°
Maximum altitude 04:26:42 85° 209° (SSW) 542 0.6 -21.0°
Drops below altitude 10° 04:30:51 10° 122° (ESE) 1,790 3.9 -20.0°
Sets 04:33:07 0° 121° (ESE) 2,682 4.8 -19.5°
